Weather History for Kushiro Airport, Japan

Change the Weather History Date:

Saturday, December 8, 2012

  Actual Average Record
Temperature  
Mean Temperature 24 °F -  
Max Temperature 32 °F 30 °F 48 °F (1998)
Min Temperature 15 °F 18 °F 15 °F (2001)
Degree Days  
Heating Degree Days 42    
Moisture  
Dew Point 22 °F    
Average Humidity 82    
Maximum Humidity 100    
Minimum Humidity 55    
Precipitation  
Precipitation 0.00 in - - ()
Sea Level Pressure  
Sea Level Pressure 29.47 in    
Wind  
Wind Speed 9 mph ()    
Max Wind Speed 23 mph    
Max Gust Speed 34 mph    
Visibility 1.7 miles    
Events Snow    
Averages and records for this station are not official NWS values.
T = Trace of Precipitation, MM = Missing Value Source: Averaged Metar Reports

Daily Weather History Graph

Daily Weather History Graph

Search for Another Location

Airport:

Trip Planner

Search our weather history database for the weather conditions in past years. The results will help you decide how hot, cold, wet, or windy it might be!

Date:

Astronomy

Dec. 08, 2012 Rise Set
Actual Time 6:41 AM JST 3:48 PM JST
Civil Twilight 6:09 AM JST 4:20 PM JST
Nautical Twilight 5:34 AM JST 4:56 PM JST
Astronomical Twilight 4:59 AM JST 5:30 PM JST
Moon 12:15 AM JST (12/8) 12:03 PM JST (12/8)
Length of Visible Light 10h 10m
Length of Day
9h 06m
Waning Crescent, 34% of the Moon is Illuminated
Dec 8
Waning Crescent
Dec 13
New
Dec 20
First Quarter
Dec 28
Full
Jan 5
Last Quarter

Hourly Weather History & Observations

Time (JST) Temp. Windchill Dew Point Humidity Pressure Visibility Wind Dir Wind Speed Gust Speed Precip Events Conditions
7:00 AM 15.8 °F 7.2 °F 6.8 °F 68% 29.77 in 6.2 mi NNW 5.8 mph - N/A   Partly Cloudy
8:00 AM 17.6 °F 6.4 °F 8.6 °F 68% 29.74 in 6.2 mi NNW 9.2 mph - N/A   Partly Cloudy
9:00 AM 19.4 °F 9.5 °F 8.6 °F 63% 29.74 in 6.2 mi North 8.1 mph - N/A   Scattered Clouds
10:00 AM 23.0 °F 13.9 °F 10.4 °F 59% 29.68 in 6.2 mi North 8.1 mph - N/A   Partly Cloudy
11:00 AM 26.6 °F 19.1 °F 12.2 °F 55% 29.68 in 6.2 mi North 6.9 mph - N/A   Scattered Clouds
12:00 PM 28.4 °F 21.2 °F 15.8 °F 59% 29.62 in 6.2 mi NNE 6.9 mph - N/A   Mostly Cloudy
1:00 PM 28.4 °F 21.2 °F 17.6 °F 64% 29.59 in 6.2 mi NE 6.9 mph - N/A   Mostly Cloudy
1:33 PM 30.2 °F 24.3 °F 17.6 °F 60% 29.56 in - NE 5.8 mph - N/A Snow Light Snow Showers
1:36 PM 30.2 °F 25.4 °F 17.6 °F 60% 29.56 in 1.4 mi NE 4.6 mph - N/A Snow Light Snow Showers
1:39 PM 28.4 °F 22.2 °F 19.4 °F 69% 29.56 in 0.9 mi NE 5.8 mph - N/A Snow Light Snow Showers
1:42 PM 28.4 °F 22.2 °F 19.4 °F 69% 29.56 in 0.7 mi NE 5.8 mph - N/A Snow Light Snow Showers
1:47 PM 28.4 °F 21.2 °F 21.2 °F 74% 29.56 in 0.6 mi NE 6.9 mph - N/A Snow Snow Showers
2:00 PM 26.6 °F 19.1 °F 23.0 °F 86% 29.56 in 0.6 mi NNE 6.9 mph - N/A Snow Snow Showers
2:24 PM 26.6 °F 18.2 °F 24.8 °F 93% 29.53 in 0.4 mi NNE 8.1 mph - N/A Snow Snow Showers
3:00 PM 28.4 °F 21.2 °F 24.8 °F 86% 29.53 in 0.2 mi NNE 6.9 mph - N/A Snow Snow Showers
4:00 PM 28.4 °F 18.5 °F 26.6 °F 93% 29.50 in 0.4 mi NNE 11.5 mph - N/A Snow Snow Showers
4:33 PM 28.4 °F 17.5 °F 26.6 °F 93% 29.44 in 0.3 mi NE 13.8 mph - N/A Snow Snow Showers
5:00 PM 28.4 °F 17.0 °F 26.6 °F 93% 29.42 in 0.6 mi NNE 15.0 mph - N/A Snow Snow Showers
6:00 PM 28.4 °F 16.6 °F 26.6 °F 93% 29.39 in 0.2 mi NNE 16.1 mph - N/A Snow Snow Showers
6:11 PM 28.4 °F 17.0 °F 26.6 °F 93% 29.36 in 0.2 mi NE 15.0 mph - N/A Snow Snow Showers
6:24 PM 28.4 °F 17.0 °F 26.6 °F 93% 29.36 in 0.2 mi NNE 15.0 mph - N/A Snow Snow Showers
6:33 PM 28.4 °F 16.6 °F 28.4 °F 100% 29.36 in 0.2 mi NNE 16.1 mph - N/A Snow Snow Showers
6:37 PM 30.2 °F 19.3 °F 26.6 °F 86% 29.33 in 0.3 mi NNE 15.0 mph - N/A Snow Snow Showers
7:00 PM 30.2 °F 19.8 °F 28.4 °F 93% 29.33 in 0.5 mi NNE 13.8 mph - N/A Snow Snow Showers
7:43 PM 30.2 °F 19.3 °F 28.4 °F 93% 29.30 in 0.2 mi North 15.0 mph - N/A Snow Snow Showers
7:47 PM 30.2 °F 19.3 °F 28.4 °F 93% 29.30 in 0.2 mi North 15.0 mph - N/A Snow Snow Showers
7:50 PM 30.2 °F 19.8 °F 28.4 °F 93% 29.27 in 0.2 mi North 13.8 mph - N/A Snow Snow Showers
8:00 PM 30.2 °F 19.8 °F 28.4 °F 93% 29.27 in 0.1 mi North 13.8 mph - N/A Snow Snow Showers
8:07 PM 30.2 °F 19.3 °F 30.2 °F 100% 29.27 in 0.1 mi North 15.0 mph - N/A Snow Snow Showers
8:40 PM 32.0 °F 20.1 °F 30.2 °F 93% 29.21 in 0.1 mi North 19.6 mph 34.5 mph N/A Snow Snow Showers
8:46 PM 32.0 °F 19.2 °F 30.2 °F 93% 29.21 in 0.2 mi North 23.0 mph 34.5 mph N/A Snow Snow Showers